Location: Le Sartre
(44.8050°N, 2.2123°E)
Time: 14:49:04
(UTC+00:00)

Cosmos 1437 Rocket - Pass Details

Date: 15 May 2026
Orbit: 439 x 476 km, 81.2° (Epoch: 10 June)

Event Time Altitude Azimuth Distance (km) Brightness Sun altitude
Exits shadow 20:03:43 11° 134° (SE) 1,545 4.4 -8.4°
Maximum altitude 20:06:02 19° 90° (E) 1,175 4.1 -8.7°
Drops below altitude 10° 20:08:38 10° 44° (NE) 1,643 5.2 -9.1°
Sets 20:11:10 0° 26° (NNE) 2,533 6.4 -9.4°
